Bluefield, WV

5:33 AM EDT on March 29, 2017 (GMT -0400)
Mercer County

Weather History for KBLF - October, 2011

Change the Weather History Date:

Saturday, October 22, 2011

  Actual Average Record
Temperature  
Mean Temperature 49 °F 55 °F  
Max Temperature 60 °F 64 °F 77 °F (1996)
Min Temperature 37 °F 46 °F 24 °F (1987)
Degree Days  
Heating Degree Days 16 11  
Month to date heating degree days 194 180  
Since 1 July heating degree days 262 259  
Cooling Degree Days 0 0  
Month to date cooling degree days 6 16  
Year to date cooling degree days 1102 848  
Moisture  
Dew Point 32 °F    
Average Humidity 59    
Maximum Humidity 85    
Minimum Humidity 33    
Precipitation  
Precipitation 0.00 in 0.08 in 0.86 in (1990)
Month to date precipitation 2.02 1.78  
Year to date precipitation 35.98 33.31  
Snow  
Snow 0.00 in - - ()
Month to date snowfall 0.0  
Since 1 July snowfall 0.0  
Since 1 September snowfall 0.0  
Snow Depth 0.00 in    
Sea Level Pressure  
Sea Level Pressure 30.12 in    
Wind  
Wind Speed 4 mph (West)    
Max Wind Speed 12 mph    
Max Gust Speed 15 mph    
Visibility 10 miles    
Events      
T = Trace of Precipitation, MM = Missing Value Source: NWS Daily Summary

Daily Weather History Graph

Daily Weather History Graph

Search for Another Location

Airport or City:

Trip Planner

Search our weather history database for the weather conditions in past years. The results will help you decide how hot, cold, wet, or windy it might be!

Date:

Astronomy

Oct. 22, 2011 Rise Set
Actual Time 7:39 AM EDT 6:38 PM EDT
Civil Twilight 7:12 AM EDT 7:05 PM EDT
Nautical Twilight 6:42 AM EDT 7:35 PM EDT
Astronomical Twilight 6:11 AM EDT 8:06 PM EDT
Moon 2:41 AM EDT (10/22) 3:50 PM EDT (10/22)
Length of Visible Light 11h 52m
Length of Day
10h 59m
Waning Crescent, 24% of the Moon is Illuminated
Oct 22
Waning Crescent
Oct 26
New
Nov 2
First Quarter
Nov 10
Full
Nov 18
Last Quarter

Hourly Weather History & Observations

Time (EDT) Temp. Windchill Dew Point Humidity Pressure Visibility Wind Dir Wind Speed Gust Speed Precip Events Conditions
12:52 AM 37.9 °F 33.5 °F 33.1 °F 83% 30.14 in 10.0 mi WSW 5.8 mph - N/A   Clear
1:52 AM 39.0 °F 34.8 °F 32.0 °F 76% 30.13 in 10.0 mi WSW 5.8 mph - N/A   Clear
2:52 AM 39.0 °F 36.8 °F 33.1 °F 79% 30.12 in 10.0 mi WSW 3.5 mph - N/A   Clear
3:52 AM 39.0 °F 36.8 °F 33.1 °F 79% 30.11 in 10.0 mi WSW 3.5 mph - N/A   Clear
4:52 AM 39.0 °F 36.8 °F 32.0 °F 76% 30.10 in 10.0 mi WSW 3.5 mph - N/A   Clear
5:52 AM 39.0 °F 36.8 °F 32.0 °F 76% 30.12 in 10.0 mi WSW 3.5 mph - N/A   Clear
6:52 AM 37.9 °F 32.7 °F 32.0 °F 79% 30.14 in 10.0 mi WSW 6.9 mph - N/A   Clear
7:52 AM 37.9 °F 32.7 °F 32.0 °F 79% 30.16 in 10.0 mi West 6.9 mph - N/A   Clear
8:52 AM 39.9 °F 36.7 °F 34.0 °F 79% 30.17 in 10.0 mi West 4.6 mph - N/A   Clear
9:52 AM 45.0 °F 41.8 °F 35.1 °F 68% 30.17 in 10.0 mi WSW 5.8 mph - N/A   Clear
10:52 AM 48.9 °F - 35.1 °F 59% 30.16 in 10.0 mi West 5.8 mph - N/A   Clear
12:52 PM 54.0 °F - 34.0 °F 47% 30.14 in 10.0 mi Calm Calm - N/A   Clear
1:52 PM 55.0 °F - 32.0 °F 42% 30.10 in 10.0 mi Calm Calm - N/A   Clear
2:52 PM 59.0 °F - 30.9 °F 35% 30.08 in 10.0 mi Variable 6.9 mph - N/A   Clear
3:52 PM 59.0 °F - 30.0 °F 33% 30.07 in 10.0 mi Variable 6.9 mph - N/A   Clear
4:52 PM 57.9 °F - 28.9 °F 33% 30.08 in 10.0 mi Variable 4.6 mph - N/A   Clear
5:52 PM 57.0 °F - 30.0 °F 36% 30.09 in 10.0 mi NW 4.6 mph - N/A   Clear
6:52 PM 53.1 °F - 30.0 °F 41% 30.11 in 10.0 mi WNW 3.5 mph - N/A   Clear
7:52 PM 51.1 °F - 30.9 °F 46% 30.12 in 10.0 mi Calm Calm - N/A   Clear
8:52 PM 48.9 °F - 30.9 °F 50% 30.13 in 10.0 mi Calm Calm - N/A   Clear
9:52 PM 48.9 °F - 30.9 °F 50% 30.12 in 10.0 mi Calm Calm - N/A   Clear
10:52 PM 48.0 °F - 30.9 °F 52% 30.11 in 10.0 mi Calm Calm - N/A   Clear
11:52 PM 44.1 °F 41.5 °F 32.0 °F 63% 30.11 in 10.0 mi West 4.6 mph - N/A   Clear